Hourly Data Report for September 21, 2003

TORONTO CITY
ONTARIO

43°40'00.000" N
79°24'00.000" W
112.50 m
6158355
71508
XTO

Download Data

Hourly Data (September 2003)
Hourly Data Report for September 21, 2003
TIME
LST
Temp Definition
°C
Dew Point Definition
°C
Rel Hum Definition
%
Precip. Amount Definition
mm

Wind Dir Definition
10's deg

Wind Spd Definition
km/h
Visibility Definition
km
Stn Press Definition
kPa
Hmdx Definition


Wind Chill Definition


Weather Definition


00:00 14.0 9.9 76   LegendMM LegendMM LegendMM 101.15     LegendNANA
01:00 12.6 10.0 84   LegendMM LegendMM LegendMM 101.18     LegendNANA
02:00 12.4 9.6 83   LegendMM LegendMM LegendMM 101.20     LegendNANA
03:00 12.2 9.8 85   LegendMM LegendMM LegendMM 101.22     LegendNANA
04:00 11.8 9.8 88   LegendMM LegendMM LegendMM 101.24     LegendNANA
05:00 LegendMM LegendMM LegendMM   LegendMM LegendMM LegendMM LegendMM     LegendNANA
06:00 11.5 9.4 87   LegendMM LegendMM LegendMM 101.28     LegendNANA
07:00 11.5 9.6 88   LegendMM LegendMM LegendMM 101.31     LegendNANA
08:00 14.1 11.2 83   LegendMM LegendMM LegendMM 101.35     LegendNANA
09:00 16.3 11.5 73   LegendMM LegendMM LegendMM 101.36     LegendNANA
10:00 18.1 10.3 60   LegendMM LegendMM LegendMM 101.31     LegendNANA
11:00 18.6 9.9 57   LegendMM LegendMM LegendMM 101.28     LegendNANA
12:00 19.1 10.3 57   LegendMM LegendMM LegendMM 101.23     LegendNANA
13:00 19.4 10.1 55   LegendMM LegendMM LegendMM 101.18     LegendNANA
14:00 19.5 9.6 53   LegendMM LegendMM LegendMM 101.12     LegendNANA
15:00 18.8 7.5 48   LegendMM LegendMM LegendMM 101.06     LegendNANA
16:00 18.6 9.0 54   LegendMM LegendMM LegendMM 100.97     LegendNANA
17:00 18.1 8.7 54   LegendMM LegendMM LegendMM 100.96     LegendNANA
18:00 17.3 10.8 66   LegendMM LegendMM LegendMM 100.97     LegendNANA
19:00 16.7 11.2 70   LegendMM LegendMM LegendMM 100.95     LegendNANA
20:00 16.6 11.5 72   LegendMM LegendMM LegendMM 100.96     LegendNANA
21:00 16.5 12.1 75   LegendMM LegendMM LegendMM 100.93     LegendNANA
22:00 16.6 12.1 75   LegendMM LegendMM LegendMM 100.87     LegendNANA
23:00 16.7 12.8 78   LegendMM LegendMM LegendMM 100.84     LegendNANA

Notes on Data Quality.

Legend

  • E = Estimated
  • M = Missing
  • NA = Not Available*
  • [empty] = Indicates an unobserved value
Date modified: